sat.trackr.live / text

‹ back to catalog

STARLINK-31780

NORAD 59432 · 2024-065M

PAYLOAD ACTIVE UNKNOWN

§ Identity

Operator
Country
US
Launch date
2024-04-07
Launch site
AFWTR
Launch vehicle
Mass (kg)
RCS (m²)

Purposes: comms

External: N2YO · Heavens-Above · Gunter

§ Orbital elements

Epoch: 2026-05-24T19:25:33.480192Z

Period
94.11 min
Inclination
53.1605°
Eccentricity
0.0001360
Mean motion
15.30201933 rev/d
Perigee alt
474.3 km
Apogee alt
476.1 km
Semi-major
6,853.3 km
B*
7.6496e-5
RAAN
288.1050°
Arg perigee
72.6747°
Mean anomaly
287.4403°
Rev number
12,058

§ Raw data

STARLINK-317801 59432U 24065M   26144.80941528  .00001907  00000+0  76496-4 0  99962 59432  53.1605 288.1050 0001360  72.6747 287.4403 15.30201933120583

JSON: /api/v1/satellites/59432 · /tle

For live sub-satellite position, see the globe view (requires WebGL).

§ Visibility from observer

Set your observer location to see the next 7 days of passes ≥ 10°. The values pass through the URL so the page stays shareable.

No JS? Fill the form by hand. The geolocation button needs JavaScript.